Time,TemperatureF,DewpointF,PressureIn,WindDirection,WindDirectionDegrees,WindSpeedMPH,WindSpeedGustMPH,Humidity,HourlyPrecipIn,Conditions,Clouds,dailyrainin,SoftwareType,DateUTC
2013-04-09 00:02:00,74.0,-99.9,-100.00,SW,233,5.0,8.0,-999,-99.99,,,-99.99,,2013-04-09 06:02:00,
2013-04-09 00:12:00,74.0,-99.9,-100.00,SW,233,5.0,8.0,-999,-99.99,,,-99.99,,2013-04-09 06:12:00,
2013-04-09 00:22:00,74.0,-99.9,-100.00,SW,233,5.0,8.0,-999,-99.99,,,-99.99,,2013-04-09 06:22:00,
2013-04-09 02:03:00,72.0,-99.9,-100.00,WSW,240,9.0,11.0,-999,-99.99,,,-99.99,,2013-04-09 08:03:00,
2013-04-09 02:13:00,72.0,-99.9,-100.00,WSW,240,9.0,11.0,-999,-99.99,,,-99.99,,2013-04-09 08:13:00,
2013-04-09 02:22:00,72.0,-99.9,-100.00,WSW,240,9.0,11.0,-999,-99.99,,,-99.99,,2013-04-09 08:22:00,
2013-04-09 02:32:00,71.0,-99.9,-100.00,SW,230,5.0,10.0,-999,-99.99,,,-99.99,,2013-04-09 08:32:00,
2013-04-09 02:42:00,71.0,-99.9,-100.00,SW,230,5.0,10.0,-999,-99.99,,,-99.99,,2013-04-09 08:42:00,
2013-04-09 02:53:00,71.0,-99.9,-100.00,SW,231,8.0,9.0,-999,-99.99,,,-99.99,,2013-04-09 08:53:00,
2013-04-09 03:03:00,71.0,-99.9,-100.00,SW,231,8.0,9.0,-999,-99.99,,,-99.99,,2013-04-09 09:03:00,
2013-04-09 04:33:00,68.0,-99.9,-100.00,West,269,5.0,6.0,-999,-99.99,,,-99.99,,2013-04-09 10:33:00,
2013-04-09 04:43:00,68.0,-99.9,-100.00,West,269,5.0,6.0,-999,-99.99,,,-99.99,,2013-04-09 10:43:00,
2013-04-09 04:54:00,68.0,-99.9,-100.00,West,269,5.0,6.0,-999,-99.99,,,-99.99,,2013-04-09 10:54:00,
2013-04-09 06:33:00,62.0,-99.9,-100.00,West,267,15.0,19.0,-999,-99.99,,,-99.99,,2013-04-09 12:33:00,
2013-04-09 06:43:00,62.0,-99.9,-100.00,West,267,15.0,19.0,-999,-99.99,,,-99.99,,2013-04-09 12:43:00,
2013-04-09 06:53:00,62.0,-99.9,-100.00,West,267,15.0,19.0,-999,-99.99,,,-99.99,,2013-04-09 12:53:00,
2013-04-09 07:54:00,61.0,-99.9,-100.00,NW,307,4.0,10.0,-999,-99.99,,,-99.99,,2013-04-09 13:54:00,
2013-04-09 08:04:00,61.0,-99.9,-100.00,NW,307,4.0,10.0,-999,-99.99,,,-99.99,,2013-04-09 14:04:00,
2013-04-09 08:10:00,54.0,-99.9,-100.00,West,279,3.0,11.0,-999,-99.99,,,-99.99,,2013-04-09 14:10:00,
2013-04-09 08:53:00,54.0,-99.9,-100.00,West,279,3.0,11.0,-999,-99.99,,,-99.99,,2013-04-09 14:53:00,
2013-04-09 09:03:00,54.0,-99.9,-100.00,West,279,3.0,11.0,-999,-99.99,,,-99.99,,2013-04-09 15:03:00,
2013-04-09 10:24:00,40.0,-99.9,-100.00,West,265,4.0,15.0,-999,-99.99,,,-99.99,,2013-04-09 16:24:00,
2013-04-09 10:34:00,40.0,-99.9,-100.00,West,265,4.0,15.0,-999,-99.99,,,-99.99,,2013-04-09 16:34:00,
2013-04-09 10:43:00,40.0,-99.9,-100.00,West,265,4.0,15.0,-999,-99.99,,,-99.99,,2013-04-09 16:43:00,
2013-04-09 12:10:00,56.0,-99.9,-100.00,WSW,249,5.0,8.0,-999,-99.99,,,-99.99,,2013-04-09 18:10:00,
2013-04-09 12:33:00,55.0,-99.9,-100.00,SW,232,1.0,7.0,-999,-99.99,,,-99.99,,2013-04-09 18:33:00,
2013-04-09 12:44:00,55.0,-99.9,-100.00,SW,232,1.0,7.0,-999,-99.99,,,-99.99,,2013-04-09 18:44:00,
2013-04-09 13:03:00,56.0,-99.9,-100.00,WSW,249,5.0,8.0,-999,-99.99,,,-99.99,,2013-04-09 19:03:00,
2013-04-09 13:33:00,58.0,-99.9,-100.00,WNW,283,5.0,7.0,-999,-99.99,,,-99.99,,2013-04-09 19:33:00,
2013-04-09 15:00:00,62.0,-99.9,-100.00,West,264,3.0,9.0,-999,-99.99,,,-99.99,,2013-04-09 21:00:00,
2013-04-09 15:53:00,62.0,-99.9,-100.00,West,264,3.0,9.0,-999,-99.99,,,-99.99,,2013-04-09 21:53:00,
2013-04-09 17:00:00,62.0,-99.9,-100.00,WNW,284,2.0,9.0,-999,-99.99,,,-99.99,,2013-04-09 23:00:00,
2013-04-09 17:53:00,62.0,-99.9,-100.00,WNW,284,2.0,9.0,-999,-99.99,,,-99.99,,2013-04-09 23:53:00,
2013-04-09 19:00:00,61.0,-99.9,-100.00,West,280,3.0,4.0,-999,-99.99,,,-99.99,,2013-04-10 01:00:00,
2013-04-09 19:53:00,61.0,-99.9,-100.00,West,280,3.0,4.0,-999,-99.99,,,-99.99,,2013-04-10 01:53:00,
2013-04-09 20:23:00,60.0,-99.9,-100.00,WSW,252,2.0,4.0,-999,-99.99,,,-99.99,,2013-04-10 02:23:00,
2013-04-09 20:33:00,60.0,-99.9,-100.00,WSW,252,2.0,4.0,-999,-99.99,,,-99.99,,2013-04-10 02:33:00,
2013-04-09 21:03:00,59.0,-99.9,-100.00,WNW,291,4.0,8.0,-999,-99.99,,,-99.99,,2013-04-10 03:03:00,
2013-04-09 21:13:00,59.0,-99.9,-100.00,WNW,291,4.0,8.0,-999,-99.99,,,-99.99,,2013-04-10 03:13:00,
2013-04-09 23:03:00,58.0,-99.9,-100.00,WNW,293,2.0,4.0,-999,-99.99,,,-99.99,,2013-04-10 05:03:00,
2013-04-09 23:13:00,58.0,-99.9,-100.00,WNW,293,2.0,4.0,-999,-99.99,,,-99.99,,2013-04-10 05:13:00,